Wind_Speed
12 12 12 13 13 14 14 15 15 16 17 17 18 18 19 20 22 23 24 25 24 23 20 16 12 9 7 7 8 9 9 9 6 7 9 13 13 11 11 11 10 10 9 8 7 5 3 3 4 6 7 8 7 7 7 7 9 4 3 5 1 0 2 2 5 5 4 3 3 2 4 6 8 11 15 13 15 21 21 21 20 19 18 18 16 12 9 6
11 12 13 13 13 14 14 15 15 16 16 17 17 17 18 19 20 22 23 23 23 22 19 15 11 8 6 5 7 8 8 8 7 9 12 11 11 11 12 11 11 11 10 8 8 7 5 5 6 7 9 9 7 6 6 6 8 5 3 4 1 4 2 2 6 6 4 5 4 3 5 4 5 10 11 6 7 14 16 15 18 20 18 16 14 10 7 5
12 12 13 14 14 14 14 15 15 16 16 16 17 16 17 18 19 20 21 22 22 21 18 14 10 7 5 4 5 6 7 7 7 9 11 10 10 11 11 12 12 11 11 10 10 8 6 7 8 8 9 8 7 5 4 6 5 3 4 3 4 5 2 1 6 7 6 8 7 4 5 2 4 7 9 10 8 5 9 12 13 16 17 15 12 9 7 5
12 13 13 14 14 15 15 15 15 16 16 16 16 16 16 17 18 19 19 20 20 19 17 13 9 7 5 4 5 4 3 4 4 6 8 8 9 10 10 11 11 10 11 10 10 9 8 9 9 8 6 6 6 3 2 5 3 1 3 2 5 4 2 2 7 8 6 8 8 6 5 4 5 5 13 20 11 1 8 15 12 15 19 16 12 10 7 6
13 13 13 14 14 15 15 15 15 16 16 16 16 16 16 16 17 17 18 18 19 18 16 12 7 6 5 4 4 2 1 1 1 4 6 6 7 8 9 9 9 8 8 9 9 9 9 9 9 8 6 4 5 3 2 4 3 2 2 5 5 4 3 4 7 6 6 8 8 7 4 3 4 6 14 18 6 4 13 14 12 15 17 15 13 11 9 8
13 13 14 14 14 15 15 15 15 15 16 16 16 16 15 15 16 17 17 17 17 16 15 11 6 5 4 4 5 3 2 1 3 5 5 4 5 7 8 7 7 6 6 7 8 8 8 9 10 8 6 4 4 2 1 4 3 1 3 4 3 2 3 3 4 4 5 6 6 5 2 4 6 5 7 10 5 10 16 15 15 16 15 14 13 11 9 7
13 13 14 14 14 15 15 15 15 15 15 15 16 15 15 15 16 16 16 16 15 15 14 10 5 2 3 5 6 4 4 4 5 5 4 3 4 6 6 6 6 4 4 7 7 8 9 9 11 8 4 3 3 2 2 5 3 2 3 4 2 2 1 1 2 4 5 6 5 3 4 6 8 6 5 8 10 15 18 18 18 17 16 14 12 11 9 7
13 13 14 14 14 15 15 15 16 16 16 15 15 15 15 15 16 17 16 15 14 13 13 9 4 0 3 4 5 4 5 4 5 5 4 3 4 4 4 4 4 4 5 8 8 8 9 9 10 7 2 2 3 4 4 6 4 2 3 4 3 4 3 3 1 2 3 6 5 2 3 8 10 9 8 13 17 19 20 20 19 17 16 14 12 11 9 7
14 14 14 15 15 15 15 16 16 16 16 16 15 15 16 15 16 17 16 15 12 12 13 8 4 2 4 4 4 3 3 4 5 6 4 3 3 3 3 3 3 4 6 7 7 7 7 8 7 6 1 1 3 4 5 4 3 1 3 5 5 7 9 10 6 3 4 6 6 2 2 4 9 8 6 14 20 20 21 20 18 17 16 14 12 10 8 7
14 14 15 15 15 16 16 17 17 17 17 16 16 16 16 16 15 16 16 15 11 11 12 7 3 3 4 6 5 3 3 6 7 7 5 3 2 2 2 2 2 5 5 5 5 5 7 8 6 6 2 0 3 4 3 1 2 4 5 7 8 11 13 11 7 4 6 6 5 3 0 5 10 4 2 14 22 21 22 20 18 17 15 13 11 10 8 6
15 15 15 16 16 17 17 17 18 18 18 17 17 16 16 16 15 15 15 14 10 10 11 6 3 3 4 5 5 3 4 7 8 7 6 4 2 1 2 1 1 4 5 4 4 3 6 7 6 5 2 0 3 4 2 1 4 6 7 9 10 12 13 8 6 6 6 4 4 5 3 4 6 2 4 16 24 22 22 20 18 16 14 13 11 10 8 5
15 16 16 16 17 17 18 19 18 19 18 18 18 16 16 15 15 14 14 14 10 9 11 6 3 3 3 3 4 3 5 7 8 8 7 4 1 1 2 1 1 3 5 4 3 2 4 6 7 5 2 2 3 2 1 4 7 6 4 6 8 9 9 5 1 5 7 4 6 7 4 1 5 5 2 17 26 22 20 19 17 16 14 14 12 10 8 6
16 16 16 17 17 17 18 19 19 20 19 19 19 17 16 15 15 14 13 14 10 8 12 6 4 5 3 3 4 4 6 7 8 8 6 4 2 1 1 0 1 3 4 4 3 2 2 5 7 6 4 2 1 1 3 6 5 4 2 1 4 8 5 3 4 3 5 4 7 6 1 5 9 9 5 18 27 22 20 20 18 17 16 14 13 11 9 7
16 17 17 17 18 18 19 19 20 20 19 20 19 18 17 15 15 13 12 14 9 8 12 6 4 6 4 3 4 5 7 8 8 8 6 4 3 1 0 0 1 4 4 4 3 1 3 6 7 6 4 2 3 4 5 5 2 1 1 2 3 3 4 6 3 4 3 2 7 6 4 7 8 9 10 20 25 23 21 20 20 19 17 16 15 12 10 9
17 17 17 17 18 18 19 19 20 20 20 20 19 19 17 16 15 10 11 12 6 8 13 6 5 6 4 4 5 7 9 9 8 7 6 4 4 3 2 1 1 4 4 4 2 1 4 7 6 5 3 3 2 3 4 4 3 2 2 3 4 1 5 10 4 6 5 3 6 6 4 6 7 8 14 22 24 23 22 21 21 21 19 18 16 14 12 11
17 17 18 18 18 18 19 19 19 20 20 20 20 19 17 17 13 8 11 9 5 11 11 6 6 6 4 4 6 8 11 10 8 7 7 6 5 4 3 3 2 3 3 4 2 1 6 6 4 4 3 2 3 4 4 4 4 3 2 3 4 2 4 7 4 4 6 3 3 5 4 5 5 7 17 22 24 23 21 22 22 22 21 19 17 16 14 13
19 18 18 18 18 18 19 19 19 20 20 20 20 19 18 16 10 9 11 8 6 14 8 6 6 6 6 6 7 9 11 11 9 8 7 6 5 4 4 3 2 1 2 3 2 1 6 3 2 2 3 4 3 4 4 4 4 4 3 2 4 4 3 4 6 4 3 3 4 3 5 7 5 7 18 23 24 23 21 23 24 23 22 20 18 17 16 14
20 20 19 19 18 18 19 19 19 19 20 21 20 20 17 11 10 12 8 6 8 12 4 5 3 3 5 7 8 7 8 9 9 8 7 6 5 4 5 4 1 1 1 2 2 2 5 1 3 2 3 4 3 5 2 3 3 4 4 3 4 4 4 5 5 3 1 2 6 3 5 11 8 6 16 23 25 24 23 24 25 24 22 21 20 18 17 15
22 21 21 20 19 19 19 19 18 19 20 20 20 20 14 9 12 6 5 4 9 6 3 5 5 4 7 8 8 9 8 8 9 9 9 7 5 5 5 3 3 3 1 2 2 3 3 2 3 3 3 3 2 4 5 7 7 6 5 4 4 5 7 7 6 6 3 4 8 8 9 11 8 6 12 21 25 24 22 23 24 24 23 22 21 20 18 15
22 22 22 21 20 19 19 19 18 18 20 20 21 19 11 9 10 1 3 9 8 6 8 11 14 15 15 14 13 12 12 12 11 10 9 8 6 6 5 3 3 3 2 1 3 3 3 3 2 4 5 6 6 5 6 5 6 5 2 4 5 5 7 8 5 6 2 3 8 9 9 10 9 8 11 20 22 19 19 21 24 25 25 26 23 21 19 16
23 23 23 22 21 20 19 19 17 16 18 19 19 15 9 8 6 3 10 11 6 10 16 18 19 19 18 18 15 12 10 10 12 12 11 8 6 6 5 2 3 1 2 0 1 1 4 2 5 8 8 8 6 5 4 3 4 3 2 3 5 4 8 9 5 4 0 2 7 5 6 10 10 9 10 17 17 17 25 26 26 29 28 28 25 22 20 17
24 23 23 22 22 20 19 18 17 15 15 16 16 11 8 9 6 7 10 9 12 16 17 17 17 18 18 17 15 12 10 7 9 14 12 9 7 6 6 4 4 1 2 3 2 4 4 4 9 8 6 5 2 2 4 2 2 2 2 1 5 4 5 8 5 3 2 1 6 6 5 8 10 11 10 17 19 22 32 33 30 32 31 29 27 23 21 19
25 23 23 23 22 20 19 18 17 15 14 13 12 9 8 9 9 11 10 8 13 14 13 14 13 14 14 12 10 10 11 7 8 13 13 10 9 8 8 6 3 2 1 2 2 2 3 6 7 4 7 6 1 1 4 1 1 2 3 1 5 4 2 5 5 5 4 3 6 8 8 6 8 12 9 15 22 21 26 29 28 31 33 31 28 24 23 21
26 24 24 24 22 20 18 18 17 15 13 11 9 7 7 9 9 12 10 5 8 9 9 9 9 10 10 8 6 7 9 8 7 10 13 11 9 8 7 5 4 2 3 4 6 4 6 7 3 6 6 5 2 1 4 3 4 4 5 5 6 7 6 7 4 5 5 4 4 7 9 6 7 13 9 4 12 14 18 23 24 29 31 28 26 24 22 20
26 25 25 24 22 20 18 17 16 14 12 9 8 6 7 9 9 11 8 3 5 6 5 6 6 7 8 6 6 6 6 7 8 10 12 12 11 8 4 5 5 2 5 4 5 4 8 5 4 6 3 4 5 3 5 7 3 5 5 9 10 9 8 7 5 5 4 5 4 5 5 6 2 8 8 2 5 10 13 17 22 27 28 27 27 25 22 19
27 27 25 23 22 20 17 16 14 13 11 8 8 6 7 8 8 9 4 3 3 5 3 4 4 4 8 7 7 7 1 5 10 12 12 10 11 8 4 4 3 2 5 4 2 2 3 1 3 6 4 4 4 4 5 7 4 3 5 5 7 6 6 6 4 3 2 4 3 3 2 8 3 5 8 5 7 10 10 11 18 24 26 29 29 26 23 20
27 27 25 23 22 19 16 14 14 12 10 9 7 6 7 6 6 7 4 3 4 5 4 3 4 5 7 8 10 9 1 3 7 11 13 10 9 8 4 3 2 2 4 3 2 3 3 2 3 4 4 4 4 5 6 7 7 3 4 4 4 4 4 4 1 2 4 2 6 2 4 7 7 7 6 6 9 10 10 11 14 20 27 29 29 26 24 20
27 26 23 21 21 19 16 15 15 13 11 10 7 6 6 4 4 4 4 1 5 4 4 4 5 6 7 8 13 10 2 3 5 8 14 11 7 6 4 5 6 5 5 5 3 5 3 4 5 5 3 3 6 6 7 10 4 5 5 4 3 3 4 2 2 5 3 3 8 6 7 4 9 5 2 2 7 10 13 16 14 19 27 28 28 27 23 19
26 24 21 20 19 18 16 16 15 13 12 9 6 6 4 2 2 4 4 4 4 3 3 5 5 6 5 5 10 10 4 2 2 7 13 9 7 4 2 5 6 5 3 4 5 6 2 4 7 8 4 5 6 4 7 9 3 3 4 2 2 0 2 1 1 3 2 1 10 8 7 4 8 3 2 1 5 11 14 14 13 19 27 27 28 27 22 19
23 21 20 19 17 17 16 15 15 13 11 9 7 6 3 1 3 5 1 5 4 1 3 5 4 5 6 5 4 6 5 4 3 8 10 5 5 4 3 3 3 4 1 3 2 6 2 1 3 4 4 5 4 2 2 4 3 4 5 4 4 3 2 2 1 2 3 4 10 8 11 9 7 3 5 4 6 9 11 9 10 18 25 27 29 28 23 20
21 20 19 17 16 16 15 14 14 12 10 10 8 6 3 2 4 3 6 4 2 1 2 2 3 4 7 5 2 3 3 3 5 8 6 3 3 2 3 3 1 3 3 4 2 5 4 1 2 3 4 5 7 4 3 3 3 5 4 4 4 5 4 4 4 3 1 6 7 4 8 9 8 6 5 8 8 7 7 8 12 18 24 28 31 29 24 20
21 20 18 17 16 16 14 13 12 12 11 11 10 7 5 1 0 4 5 3 2 3 3 3 3 3 5 3 1 4 3 2 5 7 5 4 3 3 4 5 3 2 5 3 2 6 3 4 3 2 2 5 6 4 3 5 4 5 4 4 3 5 4 3 4 0 3 7 4 2 2 5 10 10 8 12 12 8 7 10 15 19 23 29 31 28 24 19
20 19 18 17 15 15 15 14 12 13 12 12 11 6 6 2 5 6 5 3 2 3 1 2 2 3 5 3 3 4 2 3 5 5 4 4 2 4 4 5 6 4 4 3 1 3 3 4 2 1 2 7 8 5 2 2 1 4 3 3 1 1 3 5 5 3 5 7 2 3 2 4 8 8 8 11 10 9 11 16 19 22 28 32 31 27 22 18
18 16 18 18 15 15 15 14 14 14 12 13 11 5 4 5 6 5 6 6 3 2 1 2 3 3 4 3 5 4 3 4 4 5 3 3 1 4 4 5 5 5 2 2 0 3 2 5 3 5 2 7 9 5 5 5 3 4 4 4 4 3 3 5 4 5 9 7 3 1 1 4 4 2 4 6 7 6 8 13 14 20 28 31 28 24 20 17
18 14 19 20 18 17 15 14 15 14 14 14 10 4 6 8 4 3 5 5 2 1 1 2 5 4 3 3 4 3 5 4 2 4 3 4 4 5 4 5 6 6 5 3 2 3 4 6 6 2 0 6 7 4 5 6 3 2 2 4 2 4 5 4 4 5 4 6 5 3 4 6 5 2 1 2 3 4 1 7 14 20 25 27 25 23 20 16
19 18 21 22 21 20 18 16 14 14 16 13 7 6 9 7 4 5 4 4 4 4 3 2 3 4 4 4 3 3 3 2 1 3 3 3 3 5 5 5 8 9 7 5 3 2 2 6 4 1 1 2 3 3 3 3 3 2 2 3 4 3 5 2 5 1 2 4 6 3 6 7 2 2 2 3 2 3 3 6 13 18 21 23 23 22 19 15
22 25 26 26 25 22 20 18 13 14 16 11 7 9 7 5 7 6 3 4 4 4 7 2 3 5 5 3 4 5 2 1 2 3 3 3 3 6 5 5 7 13 13 7 3 4 3 4 4 3 2 2 1 2 2 2 4 5 3 5 3 3 3 2 2 3 0 5 6 3 9 11 4 3 3 3 2 4 4 5 8 12 17 20 21 21 18 13
18 22 26 29 28 24 21 19 15 14 12 8 9 11 5 5 10 9 5 5 4 4 6 5 5 5 6 5 4 4 4 3 4 3 3 3 4 6 6 5 7 12 14 9 2 2 2 3 5 1 2 2 2 2 1 3 1 4 3 2 3 2 1 2 2 3 3 6 7 4 7 11 8 4 2 4 9 10 8 7 7 11 16 19 21 21 16 12
13 14 20 26 25 24 22 20 18 15 10 7 10 9 5 5 11 16 15 8 3 3 4 6 6 3 5 6 4 3 5 6 6 4 3 3 4 6 7 5 5 7 8 9 5 2 3 2 4 2 2 2 2 2 3 3 2 2 0 2 1 3 4 3 2 2 3 6 9 6 6 9 7 6 7 11 14 13 11 10 11 13 17 21 23 21 17 14
18 11 14 18 17 21 23 21 20 15 8 8 10 6 3 4 11 22 25 16 6 6 5 4 5 5 4 5 4 3 5 5 6 5 4 4 4 5 7 6 4 3 2 5 3 1 3 2 3 2 3 1 3 4 7 8 4 2 2 2 2 2 1 2 2 2 3 6 7 6 9 12 4 5 7 9 12 13 14 14 13 13 19 24 24 22 19 16
20 9 11 13 12 20 26 20 14 12 6 7 8 6 5 7 8 15 27 27 16 10 8 5 6 6 5 5 4 4 4 4 6 5 4 5 5 4 9 12 10 7 3 4 1 3 2 3 4 2 2 4 5 5 5 8 7 6 6 6 7 6 2 3 5 3 3 6 5 3 11 13 3 4 5 7 8 10 14 16 12 14 23 26 26 24 19 16
20 9 9 12 15 24 26 15 9 10 7 8 9 8 9 9 7 10 20 25 19 11 8 5 6 7 6 6 7 6 5 4 6 7 5 7 9 5 9 17 18 15 9 3 3 4 3 3 3 4 4 5 5 4 2 2 2 3 5 5 5 6 6 6 8 3 2 5 2 1 10 11 1 3 4 5 6 10 18 19 14 17 26 28 26 23 19 16
26 15 9 11 19 28 23 8 7 8 7 10 12 13 13 9 7 9 13 16 12 8 7 6 5 8 8 6 7 6 6 6 7 8 6 6 8 8 8 16 19 12 7 2 1 2 3 3 3 4 3 1 2 4 4 4 3 1 5 5 6 8 9 8 6 1 2 5 2 1 12 10 1 2 1 0 1 7 17 21 18 19 24 27 25 22 18 15
26 21 16 13 20 29 21 6 7 9 9 9 10 14 17 13 11 11 10 12 11 6 6 7 6 9 9 6 7 7 7 7 7 8 8 4 5 8 9 15 18 11 5 6 6 7 5 2 2 2 5 5 3 4 4 3 0 3 5 5 8 11 7 2 1 1 4 7 7 7 15 11 1 2 3 4 4 5 9 16 20 21 23 25 24 21 18 15
19 15 19 22 28 32 24 11 6 7 9 11 10 12 13 13 18 22 16 14 16 10 6 8 9 11 8 5 6 8 9 10 8 6 7 5 3 4 5 12 16 11 6 7 11 13 8 3 5 5 5 7 7 5 3 3 3 3 4 7 10 13 11 5 1 4 8 7 9 12 15 13 6 2 2 2 6 6 6 11 18 21 24 27 25 22 19 15
15 9 10 19 31 36 32 24 13 5 6 10 7 10 15 14 15 23 22 17 17 14 10 9 9 9 7 7 9 10 10 11 9 4 4 5 4 2 3 8 12 11 8 6 13 12 4 2 7 10 11 12 13 12 4 5 4 5 7 10 11 12 13 9 4 8 11 6 10 18 15 18 19 7 6 6 7 8 8 10 15 20 24 27 26 22 19 15
15 9 9 13 18 24 27 26 18 8 7 11 7 7 17 18 11 14 19 17 17 18 13 8 7 9 9 11 10 10 12 11 11 8 5 5 3 2 2 4 7 11 7 6 11 9 4 4 10 12 16 17 18 16 6 5 9 13 12 11 11 10 12 13 13 16 12 5 14 22 14 18 27 14 8 11 11 9 9 12 18 23 26 27 25 22 19 14
17 13 21 23 13 8 15 22 21 14 12 16 11 7 12 17 15 13 14 14 15 18 13 8 13 17 14 13 10 10 12 10 9 10 7 5 3 0 1 2 3 8 5 4 7 6 3 8 10 10 15 19 18 14 7 6 8 13 16 12 9 12 16 18 20 21 15 11 19 26 19 21 26 15 8 12 13 12 15 20 25 27 27 27 25 23 20 15
23 13 21 30 19 11 20 30 28 21 19 16 11 11 16 19 19 16 11 8 10 18 18 13 17 21 17 15 12 12 14 11 11 12 10 10 10 5 3 3 3 6 5 4 4 3 4 7 8 8 12 17 15 11 8 8 8 14 21 14 8 14 19 19 20 23 21 20 25 27 26 29 27 14 8 12 16 18 20 24 25 25 27 29 27 25 21 17
32 19 17 24 19 15 21 25 22 17 18 16 13 17 19 18 18 14 11 12 12 13 18 22 22 19 17 17 17 19 21 17 14 15 12 11 11 6 4 5 4 3 3 3 2 2 5 5 3 4 7 14 12 7 6 7 8 17 23 16 12 16 17 17 21 22 19 21 27 26 24 27 24 13 10 12 15 16 16 19 23 26 30 30 29 26 22 19
43 29 19 16 10 11 14 13 14 13 12 13 16 19 16 17 21 15 11 20 24 15 16 24 25 16 14 19 22 25 27 21 19 23 21 17 14 12 9 8 9 8 4 5 4 3 5 4 1 4 5 12 5 1 0 2 5 16 24 21 18 18 18 18 20 20 19 20 23 20 17 21 17 7 7 10 13 13 13 18 23 26 31 32 30 28 24 21
46 32 26 19 9 11 12 9 11 13 11 14 18 19 16 18 21 16 10 19 29 26 22 23 22 14 11 20 29 35 37 31 27 29 25 19 16 13 11 12 15 14 8 7 5 4 6 4 2 4 7 8 1 5 2 3 5 15 19 18 20 21 21 19 18 22 22 17 14 14 16 19 11 3 6 8 10 10 12 20 25 27 31 34 31 28 24 19
Wind_Direction
356 358 0 3 4 4 3 3 4 7 8 11 15 14 13 11 11 12 11 15 22 23 23 26 34 49 72 89 78 69 66 61 66 83 78 64 59 52 46 41 35 31 24 16 1 352 354 3 9 10 7 6 7 356 1 10 15 30 108 68 48 178 108 171 175 174 152 175 254 233 189 151 122 117 116 102 95 96 93 96 104 111 111 113 119 124 126 135
351 353 356 358 0 2 2 0 360 2 3 5 8 10 9 7 6 7 7 10 17 22 21 24 33 46 70 104 96 83 77 75 82 80 71 64 59 53 47 44 39 32 26 18 10 13 27 26 21 16 18 26 14 357 4 7 26 57 99 60 240 206 170 192 167 165 147 154 189 196 178 159 126 140 145 126 98 104 99 99 111 114 114 121 128 133 148 186
345 347 349 352 355 359 1 360 359 359 359 0 2 5 5 3 2 3 3 4 11 18 19 22 31 45 59 112 121 104 93 81 79 73 67 66 61 53 47 42 34 29 23 17 15 14 16 12 8 8 21 36 17 352 358 3 19 64 78 46 245 212 178 194 150 141 148 160 160 165 178 115 91 154 157 137 129 116 125 137 132 129 135 138 143 158 181 197
340 342 344 346 349 353 357 359 359 358 358 358 359 2 2 360 358 358 359 359 4 12 17 19 29 46 54 106 130 133 121 75 68 77 72 69 64 55 46 35 26 26 23 16 12 9 6 3 1 9 30 35 15 1 3 13 5 15 114 180 232 194 156 161 137 123 133 150 145 152 160 97 92 144 155 140 119 322 185 168 165 159 155 153 157 164 173 167
337 339 341 343 344 347 351 355 358 359 359 359 359 1 2 359 356 354 354 354 358 5 12 15 25 52 63 108 127 136 126 28 76 106 91 78 71 59 43 27 19 23 24 18 13 11 6 0 2 15 33 31 18 24 13 22 20 336 232 226 224 163 137 142 129 114 133 138 129 137 138 147 136 112 149 156 146 210 188 175 169 166 161 161 162 160 160 156
332 335 338 340 341 343 346 349 352 355 356 358 359 1 1 359 356 351 348 348 352 359 6 10 23 62 77 111 121 99 79 175 178 137 116 94 76 60 38 17 16 24 22 19 18 25 21 8 9 16 27 37 24 20 16 8 11 310 288 272 236 167 131 150 136 118 144 139 120 131 147 164 143 102 150 180 189 167 166 162 160 161 161 162 160 161 161 151
326 330 334 336 339 340 342 343 345 347 349 352 354 356 358 358 356 350 343 344 347 354 0 2 10 69 104 118 122 102 90 134 157 143 138 115 74 56 37 9 13 20 16 23 29 34 31 18 19 26 32 43 24 357 350 330 323 176 267 295 275 244 131 152 146 129 136 123 96 107 184 191 162 144 151 154 153 154 155 156 159 160 160 164 163 160 158 144
321 325 329 332 335 337 338 339 340 341 342 344 346 348 350 352 353 347 339 339 343 351 357 355 348 214 164 150 147 130 109 130 156 153 150 126 72 47 32 11 10 11 16 25 31 34 33 24 21 26 38 50 9 345 355 334 320 155 238 293 318 291 307 327 303 159 142 126 123 98 164 211 191 169 151 143 150 155 156 157 160 161 160 164 165 157 152 141
318 321 325 328 331 334 335 336 337 337 338 338 340 340 341 344 347 345 337 333 340 349 353 350 327 252 205 198 181 171 160 160 166 165 163 137 75 39 28 21 20 17 18 19 24 31 30 31 22 12 16 40 351 342 17 15 321 234 251 300 319 301 309 309 292 233 184 158 170 158 43 207 175 153 147 155 158 159 159 161 162 164 164 165 165 161 159 148
314 317 322 325 328 332 332 333 334 335 336 336 338 337 336 338 340 342 336 331 338 347 350 349 319 260 219 213 198 200 199 175 170 173 172 155 93 52 44 33 32 23 13 6 16 30 28 31 20 1 5 74 351 332 346 13 289 309 310 306 298 297 308 297 272 229 179 169 170 164 348 170 155 144 218 174 166 164 163 162 165 170 171 170 170 171 172 164
310 314 319 322 326 328 330 331 331 332 334 334 337 336 334 334 335 339 333 327 333 346 350 345 300 252 213 213 208 211 185 171 173 176 175 163 122 58 42 22 18 17 7 359 0 22 28 23 10 0 19 326 329 321 301 308 302 306 322 315 301 310 312 283 242 218 182 164 147 123 96 139 155 252 249 186 175 172 172 167 171 181 179 175 178 181 177 168
305 310 316 319 322 325 326 327 328 330 332 333 335 336 334 331 332 334 326 321 320 336 348 343 272 237 208 223 229 213 173 168 175 177 175 171 161 19 30 6 324 356 355 351 335 349 21 5 358 356 329 273 309 347 320 328 314 292 329 318 305 339 329 295 209 196 179 168 158 122 69 286 211 246 221 180 179 176 181 178 178 184 180 176 180 181 176 170
301 307 312 316 319 321 323 325 326 328 330 332 333 336 335 330 331 329 319 316 307 320 341 336 251 244 251 259 242 199 174 174 179 180 178 181 207 303 6 354 340 351 337 331 317 298 352 347 345 342 328 292 266 323 297 314 313 280 357 28 319 357 333 320 53 162 172 171 174 150 266 260 229 236 194 175 180 178 183 184 182 182 177 177 180 184 183 171
297 302 307 312 316 318 320 322 323 326 329 331 332 336 336 331 330 323 312 312 297 312 332 321 237 246 263 261 235 200 188 186 186 189 191 204 236 252 326 228 334 348 328 319 315 274 328 337 339 345 350 326 276 302 314 337 19 252 7 49 4 357 280 308 13 156 172 189 172 156 242 252 247 246 201 183 184 182 184 183 183 181 178 181 183 187 187 170
292 298 303 307 311 314 316 319 321 324 328 330 331 336 337 332 329 318 308 305 283 320 323 293 240 246 259 254 234 216 206 203 200 206 211 229 242 228 271 237 247 336 327 313 305 273 338 333 337 358 357 333 337 353 350 349 11 36 12 323 329 194 262 308 319 171 191 225 164 153 251 261 262 241 194 186 186 185 190 186 184 184 182 184 185 185 186 177
290 294 297 302 307 309 312 316 319 322 326 329 331 336 338 331 326 317 308 290 274 328 317 264 242 238 256 257 237 227 217 215 215 224 232 239 231 221 265 245 240 319 326 319 288 287 342 341 358 23 20 19 68 71 38 8 344 6 41 279 277 239 283 316 313 206 197 218 189 186 240 269 274 216 188 187 188 190 194 189 187 187 185 185 186 187 188 185
290 292 294 299 302 305 309 313 317 320 323 327 330 339 339 332 328 320 304 263 289 328 310 239 250 260 268 249 236 236 226 223 223 229 237 231 219 227 252 229 229 288 326 324 251 316 344 357 41 20 41 47 79 79 39 353 318 327 0 303 261 254 271 296 306 299 161 186 240 210 227 251 264 194 186 191 193 195 198 195 192 189 187 188 190 193 194 191
287 290 292 295 298 302 306 310 315 317 321 326 330 338 339 334 332 319 286 239 303 324 287 224 244 298 273 224 218 227 220 223 225 231 234 220 214 223 225 212 173 140 12 330 238 334 344 24 79 35 24 15 26 78 96 244 232 257 284 295 290 279 255 250 271 294 97 229 243 217 243 253 260 205 192 196 196 200 205 202 197 193 190 192 196 198 197 194
283 286 289 292 296 299 301 306 312 314 318 322 329 338 340 337 339 320 203 254 306 304 245 232 226 254 262 243 237 234 236 239 235 235 228 216 212 210 203 181 140 139 66 346 304 346 2 39 49 10 334 296 238 130 172 207 192 213 238 231 263 276 270 259 247 262 257 247 247 230 240 252 250 221 198 197 198 203 208 205 201 197 195 197 201 201 198 197
277 281 284 289 292 294 297 301 307 311 315 320 331 345 351 347 352 323 242 308 297 253 263 269 259 257 259 265 263 253 259 254 239 232 217 208 204 195 187 168 138 100 41 324 287 333 57 28 315 256 251 224 213 192 182 190 176 181 188 214 243 242 269 277 264 276 233 199 257 238 233 253 248 232 206 195 195 201 207 206 205 201 198 200 201 200 199 199
272 275 279 284 286 290 292 295 300 306 312 320 334 350 5 3 4 309 313 319 295 274 278 276 269 262 260 264 266 261 258 244 229 221 209 202 191 187 190 149 92 43 326 210 230 4 67 7 265 235 224 202 199 195 170 163 170 172 178 237 274 237 255 276 270 286 95 172 270 255 232 255 252 244 209 185 186 203 205 204 206 202 200 203 202 201 199 197
268 269 274 277 280 284 286 289 294 298 306 316 329 345 2 2 352 330 326 304 293 292 280 274 266 262 265 265 264 254 237 232 226 215 205 198 192 192 188 134 91 210 315 39 56 8 13 279 261 245 200 154 123 149 154 169 170 173 161 211 291 255 266 292 298 326 19 185 276 279 252 255 259 256 219 188 195 210 209 208 207 202 199 201 200 199 198 196
265 266 269 271 274 278 280 284 287 291 299 306 320 337 348 348 340 338 334 291 291 293 276 272 263 258 262 261 260 238 219 221 222 210 199 197 201 191 171 138 115 168 27 66 144 3 326 256 250 212 149 138 41 79 128 130 249 198 174 184 272 276 292 288 309 337 320 256 258 276 267 254 257 257 240 198 203 214 215 214 213 206 202 202 202 203 202 201
264 264 266 267 270 273 275 279 281 284 290 295 308 324 335 336 337 340 334 290 287 288 269 259 249 249 247 244 242 214 206 214 218 204 192 193 193 180 172 145 114 148 198 156 143 180 257 255 182 118 125 152 183 145 136 171 276 261 208 204 249 269 251 244 291 336 316 291 273 297 286 255 229 243 253 199 206 219 213 210 213 210 207 207 208 207 207 206
261 260 261 264 267 270 272 276 277 277 279 282 291 305 330 331 339 347 341 323 297 281 249 233 242 244 222 215 217 196 199 220 216 199 190 194 186 166 160 161 141 185 214 166 125 208 261 266 147 129 116 147 169 210 185 176 235 297 240 214 231 252 256 263 329 357 333 308 317 12 312 273 240 244 252 167 202 222 204 204 211 209 206 207 208 205 204 206
257 257 260 262 265 267 269 273 271 268 266 268 279 299 322 325 348 353 1 50 321 259 201 205 222 208 197 203 195 170 184 243 212 198 191 194 193 174 142 162 158 197 194 163 122 241 259 356 102 137 147 151 174 243 226 167 141 287 255 206 212 229 246 268 328 352 271 264 294 59 280 274 284 247 242 191 203 223 205 209 214 208 205 206 207 203 201 205
254 254 257 260 263 264 263 263 261 258 258 263 273 292 309 322 355 356 23 27 289 220 153 178 190 178 190 196 179 161 158 225 186 196 195 187 190 184 181 185 139 198 180 127 337 268 165 94 51 104 132 157 189 250 227 156 132 238 246 133 141 198 233 250 268 266 246 272 294 215 172 273 273 248 248 183 200 230 221 220 218 208 207 207 205 202 200 204
251 252 254 257 261 261 257 254 255 256 255 261 269 270 293 321 332 3 63 315 264 176 145 176 170 178 189 190 188 186 203 155 152 193 191 184 190 180 200 208 175 191 180 139 249 272 157 171 200 155 132 188 208 229 190 157 158 245 216 141 138 200 217 227 210 254 283 13 290 242 148 261 269 248 345 121 205 242 232 221 216 208 209 207 202 200 202 205
249 250 250 252 256 257 255 251 249 251 251 252 249 249 276 314 334 55 80 248 249 142 153 169 162 189 183 168 199 214 221 178 178 191 183 183 203 189 197 210 176 174 189 160 216 248 187 192 196 158 157 215 219 224 174 164 199 220 159 115 4 22 198 211 215 258 29 14 268 246 155 222 269 224 97 64 226 242 236 223 212 209 212 209 201 200 203 205
248 246 244 245 251 251 249 247 243 244 242 230 226 240 261 185 100 77 165 247 252 159 139 162 182 187 162 145 217 226 206 211 186 167 175 185 205 205 181 181 137 125 267 340 254 245 288 88 168 165 189 191 160 131 127 151 161 115 84 21 355 359 24 43 50 73 61 268 259 230 175 197 271 245 172 194 217 221 222 211 198 208 213 209 203 201 202 203
248 243 239 238 242 242 242 240 235 233 223 210 217 221 194 131 87 122 216 240 290 228 131 183 205 148 155 162 202 199 182 222 185 161 177 191 185 198 164 173 76 65 0 344 297 298 338 98 211 230 191 137 107 89 34 28 84 95 69 31 350 324 5 24 354 49 88 260 262 225 183 196 242 249 206 228 241 224 207 194 194 204 207 203 200 200 201 199
251 242 236 234 236 235 233 231 223 217 209 202 208 197 156 128 77 193 230 313 332 217 181 193 201 163 171 165 210 202 181 212 183 165 173 167 173 194 189 200 186 3 320 279 278 324 312 215 259 330 195 160 121 90 6 356 38 78 77 59 14 325 354 347 298 256 216 249 247 120 147 220 243 250 245 243 250 249 217 203 205 200 194 195 196 196 197 196
256 247 237 231 232 232 227 224 213 202 202 195 192 171 117 153 228 208 222 264 240 219 160 130 131 136 144 151 248 213 171 217 190 175 175 147 195 244 250 229 170 163 259 228 322 326 301 293 300 2 248 191 159 140 202 264 103 137 137 123 150 334 330 293 277 275 277 271 249 114 113 267 266 263 253 248 264 269 233 221 218 199 188 191 192 191 193 193
254 253 247 232 224 228 223 218 209 198 200 192 176 137 126 206 234 215 217 230 241 349 29 111 105 111 136 182 237 195 173 241 181 160 175 136 194 244 255 248 181 139 148 158 195 194 235 302 226 186 212 179 177 183 170 143 137 177 151 135 165 166 225 267 265 268 292 297 266 160 160 238 244 257 262 266 298 301 238 217 203 188 185 186 185 186 191 193
240 246 252 239 223 221 215 212 209 199 198 190 169 154 194 210 229 211 219 230 235 330 351 55 95 124 225 265 275 219 202 240 157 135 183 169 184 205 199 217 193 142 128 168 241 173 189 260 245 233 249 161 174 187 140 110 112 217 120 118 186 182 189 247 250 233 293 310 276 214 211 228 211 212 319 326 345 20 115 165 154 164 175 177 180 185 189 193
235 236 247 243 227 218 210 206 205 204 201 185 175 216 213 208 196 191 201 183 179 164 119 41 93 146 246 276 283 255 202 224 146 135 220 209 205 214 209 219 192 171 165 169 209 188 188 264 264 47 350 190 172 171 133 116 167 164 127 182 219 164 149 233 281 310 63 285 273 236 253 276 275 256 342 49 36 50 84 146 149 160 170 173 181 186 187 192
238 238 246 243 230 220 211 204 200 207 202 186 206 222 208 207 196 190 192 156 154 139 132 173 205 183 219 237 230 231 192 222 196 169 222 240 231 204 208 245 197 184 191 181 197 218 196 268 260 153 200 249 172 123 41 29 138 137 190 215 182 96 92 113 282 321 313 249 267 252 264 277 270 261 323 43 227 219 196 181 163 169 176 180 185 186 189 194
248 246 252 248 235 222 210 201 204 211 200 193 234 233 212 210 202 195 200 164 122 109 144 203 220 184 193 204 221 211 176 195 194 177 202 232 244 189 168 215 202 195 205 188 182 257 159 259 275 175 194 237 62 91 19 330 94 138 210 231 119 144 244 124 152 268 262 261 272 265 270 269 243 225 247 212 213 211 199 193 194 191 188 188 188 187 190 197
236 240 256 254 237 220 207 198 206 212 199 201 230 232 213 207 212 213 213 202 162 153 173 216 223 198 176 183 195 183 182 196 180 177 198 197 234 201 168 191 196 204 207 171 171 223 133 221 270 316 291 269 63 124 193 246 357 57 319 321 38 184 208 195 165 204 241 268 277 280 287 272 234 187 206 213 206 198 187 191 206 204 194 190 187 188 193 198
221 229 259 254 230 213 205 199 205 207 205 219 223 223 215 213 222 222 221 221 213 200 207 210 211 219 198 191 201 181 195 203 175 188 217 192 222 225 198 191 153 165 187 122 143 182 106 212 242 318 323 242 180 198 192 187 174 145 183 225 244 206 204 262 225 158 209 258 272 277 276 270 234 162 205 214 206 196 184 192 207 200 191 191 190 192 196 198
214 228 249 227 201 199 195 192 203 204 211 235 226 224 232 231 229 224 223 225 227 226 218 194 195 207 195 203 225 194 188 200 182 196 228 210 222 234 207 193 159 142 120 75 137 200 157 195 197 182 234 214 227 237 204 191 188 179 186 195 206 204 187 266 255 205 192 241 240 254 276 271 222 158 207 204 203 197 187 194 201 188 188 192 195 196 197 199
199 219 238 199 185 188 183 186 211 208 216 230 223 224 227 230 231 222 222 224 229 236 230 213 204 204 200 207 215 194 176 194 196 201 225 219 212 215 204 192 173 156 145 131 213 200 135 128 184 222 216 204 249 289 296 235 209 198 212 198 190 189 175 215 246 231 177 239 227 73 275 270 162 133 211 211 212 194 189 195 190 182 189 192 193 195 195 199
199 212 218 189 189 184 176 197 225 204 226 230 227 234 231 232 233 219 217 218 220 221 223 229 199 201 220 210 200 200 190 203 202 193 218 233 214 215 204 187 177 157 136 151 220 157 107 110 201 268 302 1 326 330 350 18 58 232 242 196 182 203 198 209 234 153 182 235 166 191 258 259 37 45 262 96 231 192 190 193 183 178 189 190 190 193 195 199
204 213 210 193 188 184 182 215 213 205 227 221 224 236 234 240 238 222 209 205 207 196 206 225 203 207 223 194 189 207 192 208 220 199 209 221 201 215 209 189 183 172 171 195 178 165 169 167 180 255 311 313 319 341 334 325 186 223 236 197 202 217 209 209 44 104 250 227 176 220 255 257 298 20 42 85 131 171 188 189 182 178 184 188 189 192 195 199
199 210 210 197 187 189 202 223 202 205 218 210 223 232 230 243 237 227 223 214 213 201 194 227 215 206 209 168 198 219 200 216 235 213 209 218 215 227 212 198 194 195 220 208 169 163 174 187 169 184 244 258 262 267 245 226 208 227 235 209 210 210 200 201 198 218 243 224 192 228 256 267 266 135 108 166 158 165 189 185 185 186 185 187 190 192 195 198
188 191 203 191 188 197 214 224 219 224 205 199 225 228 222 235 235 226 223 223 223 215 216 238 213 197 204 186 205 227 222 227 235 223 201 203 226 258 202 206 208 213 233 202 166 157 140 220 198 203 222 232 248 256 223 138 174 226 229 209 203 204 201 202 216 233 238 234 240 244 249 267 269 234 175 215 189 181 194 183 188 192 187 188 191 194 196 199
188 195 190 174 184 203 216 219 217 223 193 184 191 213 217 223 231 225 216 215 219 215 224 247 205 196 209 194 202 230 226 224 228 226 209 188 222 301 228 212 214 214 218 189 176 154 99 240 219 216 229 233 246 253 229 175 227 244 245 222 197 192 195 200 217 234 235 232 258 256 243 254 265 255 203 213 206 195 195 186 191 190 186 189 191 192 196 201
203 215 199 187 181 194 208 208 204 207 209 201 205 226 219 215 216 215 208 206 210 204 209 234 218 214 210 190 198 228 224 223 232 227 213 198 205 242 236 259 224 208 189 166 192 156 131 237 224 211 234 242 247 252 229 206 241 256 257 242 194 185 196 207 223 234 232 227 252 264 263 258 264 263 220 209 204 201 199 194 192 187 184 187 188 190 197 204
212 223 201 195 196 191 197 200 196 201 214 210 214 233 227 220 216 208 190 183 207 206 203 217 224 218 209 196 199 222 222 214 221 226 216 213 212 181 170 253 226 199 170 154 206 160 156 244 233 204 238 252 250 248 236 231 253 263 260 251 209 209 212 216 233 240 237 238 250 263 270 267 267 267 245 224 210 203 197 189 185 182 183 186 187 191 199 206
216 218 195 192 205 204 198 197 191 200 215 210 218 232 228 227 224 210 184 185 203 207 202 216 226 213 202 205 208 223 226 211 211 225 211 204 217 196 189 215 170 156 180 161 199 206 191 240 237 169 244 264 252 236 231 239 256 264 265 259 234 237 237 231 241 247 244 246 251 257 264 267 268 264 247 224 195 183 178 177 181 184 185 186 188 194 200 205
220 223 203 186 208 206 193 192 186 196 213 205 216 228 223 226 225 212 199 208 213 208 194 211 224 213 199 213 217 226 229 214 213 225 213 199 207 202 204 198 150 148 191 175 170 197 194 228 42 107 239 260 256 106 237 313 291 270 269 261 240 240 242 234 236 240 235 238 250 255 256 261 267 259 223 197 170 165 169 174 181 187 188 189 191 194 199 204
222 227 213 199 210 200 192 198 191 199 217 210 215 223 220 224 221 207 211 224 222 221 212 209 216 211 203 217 221 226 229 222 221 231 227 215 212 208 208 194 170 167 172 166 178 184 169 188 161 146 228 257 28 82 92 35 303 268 262 246 227 228 234 237 243 243 232 227 240 247 244 252 258 185 185 194 175 172 178 181 185 188 190 192 194 196 199 203
Height
1566 1565 1564 1564 1563 1562 1561 1560 1559 1558 1557 1556 1555 1553 1552 1551 1550 1549 1547 1546 1545 1544 1543 1542 1541 1541 1541 1541 1540 1540 1539 1539 1539 1538 1537 1536 1536 1536 1535 1534 1534 1533 1532 1531 1530 1529 1529 1528 1527 1526 1525 1525 1525 1525 1524 1524 1524 1523 1527 1530 1533 1536 1535 1532 1533 1533 1533 1533 1532 1531 1530 1530 1534 1534 1533 1535 1536 1537 1538 1538 1540 1540 1541 1541 1542 1544 1544 1544
1566 1565 1564 1564 1563 1562 1561 1560 1559 1558 1557 1556 1555 1554 1553 1551 1550 1549 1548 1546 1545 1544 1543 1542 1541 1541 1541 1541 1541 1541 1540 1540 1540 1539 1537 1537 1537 1536 1536 1535 1534 1534 1532 1531 1531 1530 1529 1528 1527 1526 1525 1524 1525 1525 1524 1525 1524 1525 1529 1531 1533 1535 1532 1530 1530 1530 1531 1531 1531 1531 1530 1530 1531 1533 1532 1535 1539 1539 1538 1540 1542 1541 1541 1542 1542 1542 1543 1543
1566 1565 1564 1563 1563 1562 1561 1560 1559 1558 1557 1556 1555 1554 1553 1552 1550 1549 1548 1547 1546 1545 1543 1542 1541 1541 1541 1541 1541 1541 1541 1540 1540 1539 1538 1538 1537 1537 1536 1535 1535 1534 1533 1532 1531 1530 1529 1528 1527 1526 1525 1525 1525 1525 1525 1525 1525 1526 1528 1530 1531 1531 1530 1530 1529 1529 1529 1529 1530 1530 1529 1530 1530 1531 1531 1534 1538 1539 1538 1539 1540 1540 1540 1541 1541 1541 1541 1541
1566 1565 1564 1564 1563 1562 1561 1560 1559 1558 1557 1556 1555 1554 1553 1552 1551 1549 1548 1547 1546 1545 1544 1542 1541 1541 1540 1540 1541 1541 1541 1541 1540 1540 1539 1539 1538 1537 1536 1536 1535 1534 1533 1532 1531 1530 1529 1528 1527 1526 1525 1525 1525 1525 1525 1525 1526 1526 1527 1528 1529 1529 1530 1530 1529 1529 1528 1528 1529 1529 1529 1529 1529 1529 1530 1531 1535 1538 1537 1535 1536 1537 1537 1538 1539 1539 1539 1539
1566 1565 1564 1563 1563 1562 1561 1560 1559 1558 1557 1556 1555 1554 1553 1552 1551 1549 1548 1547 1545 1545 1544 1543 1541 1541 1540 1540 1540 1540 1541 1542 1541 1540 1540 1539 1538 1538 1537 1536 1536 1535 1534 1533 1531 1530 1529 1528 1527 1526 1526 1526 1526 1525 1526 1526 1526 1526 1526 1526 1527 1528 1529 1529 1529 1529 1528 1528 1528 1528 1528 1528 1528 1529 1529 1530 1531 1533 1533 1533 1534 1535 1535 1536 1537 1537 1537 1537
1565 1565 1564 1563 1562 1562 1561 1560 1559 1558 1557 1556 1555 1554 1553 1552 1551 1549 1548 1547 1545 1544 1543 1542 1541 1540 1540 1539 1540 1540 1540 1541 1540 1540 1540 1539 1539 1538 1537 1537 1536 1536 1535 1533 1532 1530 1529 1529 1527 1527 1527 1527 1528 1527 1527 1527 1526 1527 1526 1525 1526 1528 1528 1529 1529 1529 1528 1528 1527 1527 1527 1527 1528 1529 1529 1529 1528 1529 1530 1532 1533 1533 1534 1534 1535 1535 1535 1535
1565 1564 1564 1563 1562 1561 1561 1560 1559 1558 1557 1556 1555 1554 1553 1552 1551 1549 1548 1546 1545 1544 1543 1542 1541 1540 1540 1539 1539 1539 1539 1539 1539 1540 1540 1539 1539 1538 1537 1537 1536 1536 1535 1534 1532 1531 1530 1529 1528 1528 1529 1529 1529 1529 1527 1527 1526 1527 1527 1525 1526 1526 1527 1528 1528 1528 1527 1527 1527 1527 1526 1526 1526 1527 1528 1528 1528 1528 1529 1531 1532 1532 1533 1533 1533 1533 1533 1533
1564 1564 1563 1562 1562 1561 1560 1559 1559 1558 1557 1556 1555 1554 1553 1552 1550 1549 1547 1546 1545 1544 1543 1542 1541 1540 1540 1539 1539 1539 1539 1538 1539 1539 1539 1539 1539 1538 1538 1537 1536 1536 1535 1534 1532 1531 1530 1529 1528 1529 1530 1530 1530 1530 1528 1527 1526 1527 1527 1525 1525 1525 1525 1526 1526 1526 1526 1525 1526 1526 1525 1525 1525 1525 1527 1528 1528 1528 1529 1530 1531 1532 1532 1532 1532 1532 1532 1532
1563 1563 1562 1562 1561 1560 1560 1559 1558 1557 1556 1556 1555 1554 1553 1551 1550 1549 1547 1545 1544 1543 1542 1541 1540 1540 1539 1539 1539 1539 1538 1538 1538 1539 1539 1539 1538 1538 1537 1537 1536 1536 1534 1533 1532 1531 1530 1529 1529 1529 1530 1530 1531 1530 1529 1529 1528 1527 1527 1526 1526 1525 1524 1525 1525 1525 1525 1525 1525 1525 1526 1526 1526 1527 1527 1529 1528 1528 1529 1530 1531 1531 1531 1531 1531 1531 1531 1530
1562 1562 1561 1561 1560 1560 1559 1558 1557 1556 1556 1555 1554 1553 1552 1551 1550 1548 1546 1545 1544 1543 1542 1540 1540 1539 1539 1539 1539 1539 1538 1537 1538 1538 1538 1538 1538 1538 1537 1537 1536 1535 1534 1533 1532 1531 1530 1529 1529 1529 1529 1530 1530 1530 1530 1530 1529 1527 1527 1526 1525 1524 1524 1523 1523 1524 1524 1525 1525 1525 1527 1528 1528 1528 1527 1528 1529 1529 1530 1530 1531 1531 1530 1530 1529 1529 1529 1529
1561 1561 1560 1560 1559 1559 1558 1557 1556 1555 1555 1554 1553 1552 1551 1550 1549 1547 1545 1544 1543 1542 1541 1540 1539 1539 1539 1538 1538 1538 1536 1536 1537 1537 1538 1538 1538 1537 1537 1536 1536 1535 1534 1533 1532 1531 1530 1529 1529 1529 1529 1530 1530 1530 1530 1530 1529 1528 1527 1525 1524 1523 1522 1522 1522 1523 1524 1525 1525 1525 1528 1530 1530 1529 1526 1527 1529 1530 1530 1530 1530 1529 1528 1528 1528 1528 1528 1528
1560 1560 1559 1559 1558 1557 1557 1556 1555 1554 1554 1553 1552 1551 1550 1549 1548 1546 1545 1543 1542 1541 1540 1539 1538 1538 1538 1538 1538 1537 1536 1536 1536 1537 1537 1537 1537 1537 1536 1536 1535 1534 1533 1533 1532 1531 1531 1530 1529 1529 1529 1529 1529 1530 1529 1529 1529 1527 1527 1526 1524 1523 1521 1520 1521 1522 1522 1524 1525 1525 1529 1532 1531 1527 1525 1526 1528 1530 1530 1529 1529 1528 1527 1526 1526 1526 1526 1526
1559 1559 1558 1558 1557 1556 1556 1555 1554 1553 1552 1551 1550 1550 1549 1548 1547 1545 1543 1542 1541 1540 1539 1538 1538 1538 1538 1537 1537 1536 1536 1536 1536 1536 1536 1537 1537 1536 1535 1535 1534 1534 1533 1532 1532 1531 1531 1530 1529 1529 1529 1529 1529 1529 1529 1529 1528 1527 1528 1528 1527 1526 1522 1520 1521 1522 1522 1523 1524 1525 1528 1528 1526 1524 1525 1526 1527 1529 1529 1528 1527 1526 1525 1525 1524 1525 1525 1525
1558 1557 1557 1557 1556 1555 1555 1554 1553 1552 1551 1550 1549 1548 1547 1546 1545 1544 1542 1541 1540 1539 1538 1538 1537 1537 1537 1536 1536 1536 1536 1536 1536 1536 1536 1536 1536 1535 1535 1534 1534 1533 1532 1532 1531 1531 1530 1530 1530 1529 1528 1529 1528 1528 1528 1529 1529 1529 1529 1530 1533 1532 1524 1519 1521 1522 1522 1523 1522 1525 1527 1523 1521 1523 1524 1525 1525 1527 1527 1527 1526 1525 1524 1523 1523 1523 1523 1523
1556 1556 1556 1555 1555 1554 1553 1553 1552 1551 1550 1549 1548 1547 1546 1545 1543 1542 1541 1539 1539 1539 1537 1536 1536 1536 1536 1535 1535 1535 1535 1535 1535 1535 1535 1536 1535 1534 1534 1533 1533 1532 1532 1531 1530 1530 1530 1529 1529 1528 1529 1528 1528 1529 1529 1529 1529 1531 1530 1531 1536 1535 1527 1521 1520 1521 1521 1521 1521 1524 1526 1521 1519 1521 1522 1523 1524 1525 1525 1525 1525 1523 1521 1521 1521 1521 1521 1521
1555 1555 1554 1554 1554 1553 1552 1551 1550 1550 1549 1548 1547 1546 1544 1543 1541 1540 1539 1538 1538 1537 1536 1535 1535 1535 1535 1534 1534 1533 1533 1534 1534 1534 1534 1534 1534 1534 1533 1532 1532 1532 1531 1530 1530 1530 1529 1529 1529 1529 1529 1528 1529 1530 1530 1531 1531 1533 1534 1533 1533 1534 1532 1526 1520 1519 1520 1520 1520 1521 1521 1517 1516 1518 1519 1521 1522 1522 1523 1523 1522 1521 1519 1519 1519 1519 1519 1519
1555 1554 1553 1553 1552 1552 1551 1550 1549 1548 1547 1546 1545 1544 1543 1541 1540 1539 1538 1537 1537 1536 1535 1534 1534 1534 1533 1533 1532 1531 1531 1532 1532 1533 1533 1533 1533 1532 1532 1531 1531 1531 1530 1530 1530 1529 1529 1528 1528 1529 1530 1531 1532 1531 1532 1535 1534 1535 1537 1534 1532 1532 1533 1529 1522 1519 1520 1520 1519 1521 1520 1515 1514 1517 1518 1518 1519 1520 1521 1520 1519 1519 1518 1517 1517 1517 1517 1516
1554 1553 1552 1552 1551 1551 1550 1549 1548 1547 1546 1545 1544 1542 1541 1539 1538 1537 1536 1536 1536 1535 1534 1533 1534 1534 1532 1530 1530 1529 1530 1531 1531 1531 1531 1531 1532 1531 1531 1531 1530 1530 1530 1530 1529 1529 1529 1528 1528 1530 1531 1533 1532 1531 1534 1536 1535 1536 1536 1534 1533 1532 1531 1529 1525 1520 1520 1521 1520 1521 1520 1514 1513 1516 1516 1516 1517 1518 1518 1518 1517 1516 1516 1516 1515 1515 1515 1514
1552 1552 1551 1551 1550 1550 1549 1548 1547 1546 1545 1544 1543 1541 1539 1538 1537 1535 1535 1536 1535 1533 1533 1532 1532 1533 1530 1527 1527 1528 1528 1529 1530 1530 1530 1530 1530 1530 1530 1530 1529 1529 1529 1529 1529 1529 1528 1528 1530 1531 1532 1533 1532 1531 1533 1533 1533 1534 1535 1535 1534 1533 1529 1525 1524 1521 1520 1521 1519 1519 1517 1512 1511 1514 1515 1515 1516 1517 1517 1517 1516 1515 1514 1514 1513 1512 1512 1512
1550 1550 1549 1549 1549 1548 1547 1547 1546 1545 1544 1542 1541 1540 1538 1538 1536 1535 1534 1534 1533 1532 1531 1530 1529 1529 1527 1525 1526 1526 1526 1527 1528 1528 1528 1529 1529 1529 1529 1529 1528 1529 1529 1529 1529 1529 1529 1530 1532 1531 1531 1531 1532 1532 1531 1532 1533 1533 1535 1535 1534 1536 1530 1522 1522 1521 1520 1522 1516 1514 1515 1511 1509 1510 1511 1513 1514 1516 1516 1515 1513 1512 1511 1510 1510 1509 1510 1510
1547 1547 1547 1548 1547 1547 1546 1545 1545 1544 1543 1541 1540 1539 1539 1539 1537 1536 1534 1531 1531 1530 1528 1526 1525 1524 1524 1524 1524 1524 1525 1525 1525 1527 1527 1527 1528 1528 1528 1528 1528 1529 1529 1530 1530 1529 1530 1531 1530 1528 1529 1530 1531 1532 1532 1532 1533 1533 1534 1534 1533 1536 1531 1521 1521 1520 1520 1522 1514 1511 1514 1511 1507 1506 1507 1511 1512 1511 1509 1508 1507 1507 1507 1506 1506 1507 1507 1508
1544 1545 1545 1545 1545 1545 1545 1544 1544 1543 1542 1541 1540 1540 1540 1539 1538 1537 1535 1531 1527 1526 1524 1523 1522 1521 1521 1522 1522 1523 1523 1523 1524 1525 1525 1526 1526 1526 1526 1528 1529 1529 1530 1530 1530 1531 1532 1531 1526 1526 1528 1530 1531 1532 1532 1532 1534 1534 1535 1536 1533 1532 1530 1522 1521 1521 1521 1521 1514 1510 1512 1510 1506 1504 1503 1505 1505 1503 1501 1501 1501 1501 1502 1502 1503 1504 1505 1505
1542 1542 1543 1542 1543 1543 1543 1543 1542 1542 1542 1540 1540 1540 1539 1538 1537 1537 1535 1532 1525 1522 1521 1519 1519 1519 1519 1520 1520 1521 1522 1522 1522 1522 1524 1525 1524 1525 1525 1526 1528 1529 1530 1529 1529 1533 1532 1527 1525 1526 1528 1529 1531 1532 1533 1532 1533 1533 1534 1535 1531 1529 1530 1524 1521 1522 1521 1520 1515 1510 1510 1509 1505 1499 1497 1499 1499 1499 1499 1499 1500 1499 1499 1499 1501 1501 1502 1502
1539 1540 1540 1539 1540 1541 1541 1541 1541 1541 1540 1539 1539 1539 1538 1538 1537 1535 1534 1531 1525 1520 1518 1517 1517 1517 1517 1519 1519 1519 1520 1520 1521 1521 1522 1523 1523 1524 1523 1524 1527 1528 1529 1527 1529 1532 1528 1524 1525 1527 1528 1529 1530 1531 1532 1532 1532 1531 1531 1532 1528 1525 1527 1524 1524 1525 1521 1519 1515 1511 1506 1500 1500 1495 1490 1497 1499 1498 1498 1498 1498 1497 1497 1499 1499 1499 1499 1500
1537 1537 1537 1537 1538 1539 1539 1540 1539 1539 1539 1538 1539 1538 1538 1537 1536 1535 1533 1532 1527 1519 1516 1516 1516 1516 1516 1517 1518 1518 1519 1519 1519 1520 1520 1521 1521 1522 1522 1523 1524 1526 1528 1528 1529 1529 1526 1524 1526 1527 1528 1529 1529 1530 1531 1531 1532 1531 1527 1526 1524 1523 1524 1525 1527 1527 1523 1519 1515 1516 1508 1493 1494 1494 1489 1496 1499 1495 1496 1495 1494 1494 1495 1497 1496 1495 1497 1497
1534 1534 1534 1535 1536 1536 1538 1537 1537 1538 1537 1537 1537 1537 1538 1536 1536 1535 1533 1536 1531 1517 1514 1515 1515 1515 1515 1516 1517 1518 1518 1517 1517 1518 1519 1520 1520 1520 1521 1522 1522 1524 1526 1528 1528 1527 1525 1526 1526 1526 1527 1528 1529 1529 1529 1530 1533 1533 1525 1523 1524 1524 1526 1526 1528 1528 1524 1521 1518 1521 1519 1503 1493 1488 1484 1492 1496 1493 1494 1492 1491 1492 1492 1492 1491 1492 1493 1493
1530 1531 1532 1533 1533 1535 1536 1536 1536 1536 1535 1537 1536 1536 1537 1534 1537 1534 1533 1542 1533 1513 1511 1514 1513 1514 1514 1515 1516 1516 1517 1515 1515 1517 1518 1519 1519 1519 1519 1521 1521 1522 1523 1526 1528 1524 1523 1526 1527 1527 1527 1528 1528 1526 1527 1529 1531 1529 1526 1526 1525 1524 1527 1526 1529 1529 1526 1526 1522 1520 1524 1516 1497 1485 1483 1488 1491 1490 1491 1490 1488 1489 1488 1487 1488 1489 1489 1490
1527 1529 1530 1531 1531 1532 1533 1534 1534 1534 1535 1535 1535 1536 1535 1534 1537 1533 1537 1545 1527 1507 1509 1511 1511 1512 1512 1514 1515 1514 1514 1514 1515 1516 1516 1518 1518 1518 1518 1519 1519 1520 1521 1524 1526 1522 1521 1524 1524 1525 1526 1527 1524 1522 1523 1526 1526 1525 1526 1528 1526 1526 1528 1527 1529 1530 1529 1532 1522 1513 1523 1519 1493 1482 1490 1493 1490 1488 1485 1483 1483 1483 1483 1483 1485 1486 1486 1487
1524 1526 1527 1529 1529 1530 1531 1532 1532 1532 1533 1534 1534 1535 1534 1535 1535 1533 1544 1544 1517 1503 1508 1509 1510 1511 1511 1513 1513 1513 1513 1513 1514 1514 1515 1517 1517 1517 1518 1518 1518 1519 1520 1521 1521 1519 1520 1521 1521 1522 1524 1522 1520 1521 1523 1524 1523 1524 1527 1527 1527 1529 1528 1529 1531 1530 1533 1534 1518 1508 1518 1514 1484 1471 1488 1495 1488 1481 1473 1472 1477 1478 1479 1480 1481 1483 1484 1484
1521 1523 1525 1526 1526 1528 1529 1529 1531 1531 1532 1533 1533 1533 1534 1535 1534 1540 1551 1538 1510 1505 1509 1507 1509 1510 1510 1512 1512 1512 1512 1512 1513 1513 1515 1516 1516 1517 1517 1517 1519 1520 1521 1521 1520 1519 1519 1521 1521 1520 1519 1517 1519 1523 1524 1524 1524 1524 1527 1526 1525 1528 1529 1533 1534 1532 1534 1523 1507 1503 1508 1509 1489 1468 1475 1479 1468 1463 1461 1464 1472 1474 1475 1477 1478 1480 1480 1481
1518 1520 1522 1523 1524 1526 1526 1528 1529 1529 1531 1531 1532 1533 1533 1534 1537 1544 1542 1522 1506 1508 1507 1507 1509 1508 1508 1511 1510 1511 1512 1511 1512 1513 1514 1515 1516 1517 1517 1517 1518 1520 1522 1521 1520 1522 1521 1520 1520 1516 1515 1517 1519 1522 1524 1525 1525 1525 1527 1526 1525 1525 1527 1531 1532 1535 1531 1508 1496 1504 1508 1510 1496 1468 1464 1465 1455 1454 1456 1459 1464 1465 1468 1472 1474 1477 1478 1479
1517 1518 1519 1521 1522 1523 1525 1526 1527 1528 1529 1529 1531 1532 1532 1537 1541 1537 1526 1510 1506 1506 1504 1505 1507 1506 1509 1510 1508 1509 1510 1509 1510 1510 1512 1514 1515 1514 1514 1513 1513 1517 1521 1518 1518 1520 1517 1516 1518 1515 1514 1516 1516 1520 1525 1526 1526 1526 1527 1528 1528 1528 1527 1526 1522 1523 1520 1501 1498 1509 1509 1504 1486 1461 1458 1460 1454 1456 1455 1455 1456 1457 1463 1468 1471 1474 1475 1477
1514 1515 1517 1519 1520 1522 1523 1524 1526 1527 1527 1528 1530 1529 1533 1540 1536 1524 1517 1508 1502 1501 1501 1503 1505 1506 1509 1508 1507 1508 1509 1507 1507 1508 1510 1513 1514 1512 1511 1511 1510 1511 1515 1520 1522 1519 1513 1513 1517 1515 1513 1513 1513 1515 1518 1520 1524 1526 1525 1525 1526 1530 1531 1525 1516 1512 1506 1497 1500 1511 1509 1495 1472 1456 1456 1455 1453 1455 1454 1454 1454 1454 1460 1464 1467 1471 1473 1474
1512 1514 1515 1516 1518 1520 1521 1523 1524 1525 1526 1527 1528 1529 1535 1537 1524 1515 1513 1506 1501 1502 1502 1503 1505 1507 1507 1506 1505 1505 1506 1505 1505 1507 1508 1512 1514 1510 1508 1509 1510 1508 1513 1520 1522 1520 1516 1509 1509 1510 1508 1508 1509 1509 1509 1513 1521 1525 1524 1523 1523 1524 1526 1521 1513 1506 1500 1496 1501 1510 1503 1481 1460 1453 1458 1458 1456 1456 1453 1453 1453 1455 1460 1463 1466 1470 1470 1471
1511 1512 1512 1513 1516 1517 1519 1522 1522 1523 1525 1524 1526 1529 1530 1524 1516 1512 1509 1503 1502 1503 1503 1504 1506 1507 1508 1507 1505 1502 1501 1501 1504 1506 1507 1508 1509 1505 1502 1503 1505 1507 1511 1516 1515 1518 1519 1508 1503 1508 1507 1507 1508 1508 1510 1511 1517 1525 1527 1525 1520 1515 1515 1515 1510 1506 1509 1508 1502 1499 1486 1465 1453 1454 1459 1460 1457 1456 1455 1454 1455 1457 1460 1463 1465 1467 1468 1468
1509 1509 1509 1510 1512 1514 1518 1520 1521 1523 1522 1523 1526 1523 1514 1508 1507 1506 1500 1496 1498 1499 1503 1507 1506 1508 1509 1506 1504 1502 1500 1501 1504 1506 1505 1507 1506 1503 1500 1496 1498 1500 1501 1505 1507 1509 1511 1506 1506 1510 1508 1509 1509 1508 1511 1509 1511 1524 1526 1518 1515 1514 1512 1512 1512 1513 1521 1516 1494 1480 1471 1457 1451 1451 1456 1460 1458 1457 1459 1456 1457 1459 1459 1462 1463 1463 1465 1466
1505 1505 1505 1506 1508 1512 1515 1517 1520 1521 1520 1522 1520 1510 1501 1498 1497 1497 1494 1493 1494 1495 1500 1504 1503 1502 1504 1502 1500 1500 1500 1502 1504 1504 1504 1506 1501 1497 1497 1493 1492 1493 1490 1494 1497 1498 1501 1501 1505 1509 1506 1509 1511 1509 1512 1510 1510 1518 1519 1511 1511 1516 1516 1517 1520 1518 1520 1514 1490 1474 1469 1456 1447 1448 1453 1460 1460 1457 1460 1459 1459 1460 1459 1460 1461 1462 1463 1463
1502 1503 1502 1500 1504 1509 1511 1515 1517 1517 1519 1521 1513 1502 1497 1494 1491 1491 1491 1491 1492 1493 1496 1498 1496 1494 1497 1498 1496 1498 1500 1500 1502 1503 1501 1501 1494 1487 1490 1488 1487 1489 1487 1489 1492 1496 1500 1498 1503 1512 1510 1509 1512 1511 1510 1511 1511 1512 1511 1510 1511 1513 1514 1518 1524 1517 1511 1508 1486 1471 1468 1452 1441 1443 1443 1449 1454 1453 1457 1459 1458 1457 1457 1457 1458 1459 1461 1461
1501 1502 1497 1494 1500 1506 1508 1512 1513 1515 1518 1514 1507 1501 1494 1490 1488 1488 1488 1489 1490 1491 1492 1491 1489 1490 1493 1494 1491 1495 1498 1497 1499 1500 1496 1495 1491 1483 1483 1483 1483 1487 1488 1489 1491 1495 1499 1496 1499 1511 1514 1511 1511 1511 1507 1507 1512 1514 1513 1512 1511 1511 1510 1511 1516 1510 1503 1501 1485 1473 1466 1442 1429 1434 1430 1432 1443 1446 1451 1455 1453 1452 1452 1453 1454 1456 1457 1458
1500 1500 1493 1489 1496 1501 1505 1510 1510 1512 1510 1502 1497 1495 1490 1487 1486 1485 1485 1487 1486 1486 1487 1486 1487 1488 1489 1491 1490 1490 1493 1494 1496 1497 1492 1489 1486 1481 1481 1480 1481 1487 1489 1491 1492 1493 1498 1499 1498 1509 1518 1512 1504 1502 1498 1497 1504 1510 1511 1513 1511 1510 1510 1508 1508 1503 1499 1498 1490 1485 1470 1432 1419 1430 1425 1425 1435 1438 1443 1446 1445 1446 1449 1449 1451 1452 1453 1454
1498 1498 1489 1487 1494 1497 1502 1507 1505 1503 1500 1493 1490 1490 1487 1484 1483 1482 1483 1484 1483 1481 1482 1482 1483 1484 1484 1487 1488 1486 1489 1492 1493 1492 1489 1485 1481 1478 1476 1475 1478 1484 1489 1492 1492 1490 1494 1498 1497 1504 1510 1504 1494 1493 1494 1492 1493 1496 1499 1500 1500 1502 1506 1508 1505 1498 1497 1495 1486 1488 1470 1426 1414 1428 1425 1425 1432 1433 1437 1439 1439 1443 1445 1445 1447 1448 1450 1451
1494 1491 1485 1487 1491 1492 1497 1500 1496 1495 1493 1487 1485 1485 1483 1481 1479 1479 1479 1480 1480 1478 1479 1479 1479 1481 1480 1480 1481 1482 1484 1487 1488 1488 1483 1478 1476 1473 1471 1472 1474 1477 1481 1486 1488 1487 1489 1494 1495 1494 1495 1496 1495 1495 1497 1495 1492 1493 1493 1490 1492 1496 1498 1500 1496 1491 1496 1491 1483 1492 1475 1428 1416 1429 1426 1426 1429 1429 1432 1434 1436 1440 1440 1442 1444 1444 1447 1447
1486 1484 1483 1486 1488 1489 1495 1494 1491 1490 1486 1481 1481 1480 1479 1478 1476 1476 1475 1476 1477 1476 1477 1476 1473 1475 1476 1475 1476 1478 1479 1480 1480 1480 1476 1473 1472 1470 1469 1470 1472 1474 1477 1482 1485 1486 1488 1491 1491 1488 1486 1492 1497 1497 1496 1496 1496 1494 1490 1489 1490 1487 1484 1487 1486 1488 1493 1486 1486 1497 1471 1425 1419 1430 1426 1427 1429 1428 1431 1431 1433 1437 1437 1439 1442 1442 1444 1445
1479 1481 1482 1484 1487 1488 1487 1483 1481 1482 1480 1479 1481 1478 1477 1476 1472 1471 1471 1471 1471 1471 1471 1470 1469 1469 1469 1470 1472 1473 1475 1474 1471 1471 1470 1468 1468 1467 1467 1469 1470 1471 1472 1473 1475 1479 1483 1486 1489 1491 1490 1489 1490 1493 1493 1493 1496 1492 1484 1484 1484 1480 1482 1485 1486 1492 1489 1478 1483 1488 1452 1415 1421 1432 1427 1428 1430 1429 1432 1433 1432 1435 1436 1438 1440 1441 1442 1442
1476 1478 1477 1479 1482 1482 1477 1471 1472 1475 1475 1477 1478 1475 1475 1472 1466 1465 1467 1465 1465 1466 1465 1464 1464 1463 1465 1468 1469 1468 1469 1467 1465 1465 1464 1465 1466 1465 1466 1467 1468 1468 1467 1467 1468 1470 1474 1478 1480 1486 1491 1486 1479 1477 1476 1478 1486 1487 1480 1479 1480 1480 1484 1482 1485 1491 1481 1470 1474 1467 1438 1416 1420 1429 1429 1428 1430 1431 1432 1433 1433 1433 1435 1437 1438 1439 1439 1440
1470 1470 1471 1473 1476 1474 1469 1467 1469 1470 1469 1474 1476 1473 1471 1466 1459 1459 1462 1462 1461 1462 1461 1459 1460 1461 1463 1465 1466 1465 1464 1463 1462 1462 1462 1462 1462 1464 1465 1465 1466 1466 1466 1467 1467 1468 1472 1473 1470 1469 1472 1470 1463 1459 1461 1466 1473 1473 1471 1473 1476 1477 1479 1479 1483 1479 1468 1469 1463 1441 1432 1425 1412 1417 1428 1426 1428 1430 1429 1431 1432 1432 1433 1434 1435 1436 1436 1437
1460 1455 1455 1461 1466 1466 1464 1463 1465 1464 1464 1468 1467 1460 1456 1457 1456 1456 1456 1455 1457 1459 1459 1457 1457 1458 1457 1459 1463 1462 1459 1460 1460 1459 1460 1459 1459 1464 1466 1464 1465 1465 1465 1467 1467 1467 1470 1468 1464 1463 1460 1455 1451 1452 1458 1462 1461 1458 1458 1464 1471 1475 1477 1477 1474 1459 1456 1469 1452 1420 1428 1429 1404 1405 1421 1421 1423 1427 1425 1427 1427 1427 1430 1430 1432 1434 1434 1435
1447 1440 1438 1443 1447 1449 1450 1450 1453 1456 1458 1458 1452 1447 1446 1448 1450 1449 1448 1450 1452 1454 1456 1454 1450 1448 1448 1452 1457 1456 1454 1458 1458 1456 1456 1456 1457 1463 1465 1464 1465 1464 1464 1467 1465 1466 1468 1461 1457 1461 1459 1452 1451 1453 1458 1460 1460 1456 1452 1456 1466 1472 1471 1467 1461 1450 1450 1457 1435 1411 1421 1419 1397 1401 1413 1413 1416 1418 1417 1420 1421 1422 1426 1427 1429 1431 1431 1432
1437 1432 1432 1434 1432 1432 1433 1434 1441 1449 1450 1449 1448 1442 1437 1435 1436 1437 1440 1446 1447 1445 1446 1445 1439 1439 1444 1447 1449 1448 1446 1449 1451 1449 1449 1449 1450 1455 1459 1460 1461 1463 1464 1465 1465 1466 1465 1456 1454 1458 1457 1452 1453 1456 1458 1461 1463 1457 1448 1452 1461 1463 1460 1458 1453 1445 1444 1443 1426 1417 1422 1407 1390 1399 1408 1406 1408 1410 1411 1416 1417 1420 1423 1423 1426 1427 1427 1428
1427 1424 1424 1427 1426 1426 1427 1430 1438 1442 1443 1446 1444 1431 1424 1426 1427 1429 1433 1436 1436 1435 1436 1434 1429 1431 1438 1441 1441 1437 1430 1433 1438 1437 1439 1443 1445 1448 1451 1449 1452 1461 1465 1463 1464 1466 1463 1457 1455 1459 1458 1452 1450 1456 1460 1463 1464 1456 1446 1449 1454 1453 1452 1454 1447 1438 1440 1437 1425 1424 1426 1405 1385 1393 1403 1402 1404 1407 1410 1413 1415 1416 1418 1419 1421 1422 1423 1424
1421 1420 1422 1424 1423 1423 1425 1427 1431 1435 1435 1435 1428 1417 1418 1421 1419 1422 1427 1424 1420 1422 1424 1423 1423 1428 1435 1436 1432 1424 1418 1424 1429 1426 1427 1433 1434 1435 1438 1436 1441 1452 1460 1461 1460 1460 1462 1461 1459 1462 1462 1451 1451 1462 1465 1467 1471 1463 1447 1444 1449 1447 1442 1439 1434 1428 1429 1428 1423 1427 1424 1400 1383 1390 1397 1397 1400 1403 1405 1408 1411 1412 1413 1415 1416 1417 1419 1420
1419 1419 1418 1420 1418 1418 1421 1421 1424 1425 1420 1414 1410 1409 1413 1411 1410 1418 1424 1417 1412 1414 1417 1417 1420 1427 1430 1426 1418 1411 1412 1419 1422 1421 1423 1426 1426 1426 1428 1430 1431 1436 1447 1456 1455 1454 1457 1457 1456 1462 1459 1452 1460 1471 1470 1471 1470 1449 1425 1422 1430 1433 1429 1427 1424 1416 1415 1419 1422 1418 1403 1385 1383 1391 1392 1394 1397 1399 1400 1402 1404 1407 1409 1410 1411 1413 1415 1416